Mason City Municipal Airport Mason City US
ICAO: KMCW
IATA: MCW
Category: Medium
Scheduled Services: No

Elevation: 1213 ft
TransAlt. 18000 ft.

Airport Communications:
ASOS:120.3
MINNEAPOLIS CNTR:127.3
FORT DODGE RDO:122.6
CTAF/UNICOM:123

KMCW Zoom In..

If you have problems with the map follow the link
https://www.worldairports.se/pages/airport.php?
ICAO=KMCW

Runways:

(A) RW 12 length 5502 ft width 150 ft
---- / hdg 120

(B) RW 18 length 6501 ft width 150 ft
---- / hdg 175

(C) RW 30 length 5502 ft width 150 ft
---- / hdg 300

(D) RW 36 length 6501 ft width 150 ft
ILS 109.50 / hdg 355

Location; KMCW
Day. 14 / Time. 20.53 Zulu
* Altimeter: 30.21
* Temperature: 03° c. 37.4°f.
* Wind from: 280° Speed 04 kn.
Dewpoint: -01° c.
Visibility: 10 Statute Miles.
Clouds: Clear (automated report).

KMCW 142053Z AUTO 28004KT 10SM CLR 03/M01 A3021 RMK AO2 SLP239 T00331011 56004


Wind From 280°
Speed 04 kn.

 
 
jpsmedia.com for Web Design worldairports.se 2018   terms of use